When you browse on this site, cookies collect data to enhance your experience and personalize the content and advertising you see.
Visit our Privacy Policy to learn more. By continuing to use the site, you agree to this use of cookies and data.
  • In Austria
  • List of Countries
  • For 7 days
  • Water Temperature
  • Satellite Maps
  • Weather Map
  • News
  • Weather Widgets
  • user-avatar
    Login

    Hourly Weather Tallahassee

    Today, 19 February, Tuesday

    Time Temperature Precipitation Wind Pressure Humidity
    00:00 +16°C° 0 mm 3 mps 764 mmHg 51%
    01:00 +17°C° 0 mm 3 mps 764 mmHg 50%
    02:00 +17°C° 0 mm 3 mps 764 mmHg 49%
    03:00 +17°C° 0 mm 3 mps 763 mmHg 48%
    04:00 +17°C° 0 mm 3 mps 764 mmHg 47%
    05:00 +17°C° 0 mm 3 mps 764 mmHg 47%
    06:00 +16°C° 0 mm 3 mps 764 mmHg 47%
    07:00 +17°C° 0 mm 3 mps 764 mmHg 49%
    08:00 +17°C° 0 mm 3 mps 765 mmHg 51%
    09:00 +18°C° 0 mm 4 mps 765 mmHg 53%
    10:00 +20°C° 0 mm 4 mps 764 mmHg 55%
    11:00 +22°C° 0 mm 4 mps 764 mmHg 57%
    12:00 +25°C° 0 mm 4 mps 764 mmHg 58%
    13:00 +25°C° 0 mm 4 mps 763 mmHg 62%
    14:00 +23°C° 0 mm 4 mps 763 mmHg 66%
    15:00 +23°C° 0 mm 4 mps 762 mmHg 70%
    16:00 +22°C° 0 mm 4 mps 762 mmHg 74%
    17:00 +21°C° 0 mm 4 mps 762 mmHg 79%
    18:00 +19°C° 0 mm 4 mps 762 mmHg 83%
    19:00 +19°C° 0 mm 4 mps 762 mmHg 85%
    20:00 +19°C° 0 mm 4 mps 762 mmHg 87%
    21:00 +19°C° 0 mm 4 mps 763 mmHg 89%
    22:00 +19°C° 0 mm 4 mps 762 mmHg 90%
    23:00 +19°C° 0 mm 3 mps 762 mmHg 91%

    Tomorrow, 20 February, Wednesday

    Time Temperature Precipitation Wind Pressure Humidity
    00:00 +19°C° 0 mm 3 mps 762 mmHg 92%
    01:00 +19°C° 0 mm 3 mps 761 mmHg 91%
    02:00 +19°C° 0 mm 3 mps 761 mmHg 91%
    03:00 +19°C° 0 mm 3 mps 760 mmHg 91%
    04:00 +19°C° 0 mm 3 mps 760 mmHg 92%
    05:00 +20°C° 0 mm 3 mps 760 mmHg 94%
    06:00 +20°C° 0 mm 3 mps 760 mmHg 95%
    07:00 +20°C° 0 mm 3 mps 760 mmHg 92%
    08:00 +21°C° 0 mm 3 mps 761 mmHg 90%
    09:00 +22°C° 0 mm 3 mps 761 mmHg 87%
    10:00 +22°C° 0.2 mm 3 mps 761 mmHg 87%
    11:00 +22°C° 0.2 mm 3 mps 760 mmHg 88%
    12:00 +22°C° 0.2 mm 4 mps 760 mmHg 89%
    13:00 +23°C° 0.1 mm 4 mps 760 mmHg 86%
    14:00 +25°C° 0.1 mm 4 mps 759 mmHg 83%
    15:00 +26°C° 0.1 mm 4 mps 758 mmHg 80%
    16:00 +25°C° 0 mm 3 mps 759 mmHg 85%
    17:00 +24°C° 0 mm 3 mps 759 mmHg 89%
    18:00 +23°C° 0 mm 2 mps 759 mmHg 93%
    19:00 +21°C° 0 mm 2 mps 759 mmHg 95%
    20:00 +21°C° 0 mm 2 mps 759 mmHg 96%
    21:00 +20°C° 0 mm 2 mps 760 mmHg 97%
    22:00 +20°C° 0 mm 2 mps 759 mmHg 97%
    23:00 +20°C° 0 mm 2 mps 759 mmHg 97%

    Day after tomorrow, 21 February, Thursday

    Time Temperature Precipitation Wind Pressure Humidity
    00:00 +21°C° 0 mm 1 mps 759 mmHg 98%
    01:00 +21°C° 0 mm 1 mps 759 mmHg 98%
    02:00 +21°C° 0 mm 1 mps 759 mmHg 98%
    03:00 +21°C° 0 mm 1 mps 759 mmHg 98%
    04:00 +20°C° 0 mm 1 mps 759 mmHg 98%
    05:00 +20°C° 0 mm 1 mps 759 mmHg 98%
    06:00 +20°C° 0 mm 1 mps 760 mmHg 98%
    07:00 +21°C° 0 mm 2 mps 760 mmHg 91%
    08:00 +24°C° 0 mm 3 mps 760 mmHg 83%
    09:00 +25°C° 0 mm 3 mps 761 mmHg 76%
    10:00 +27°C° 0 mm 3 mps 761 mmHg 71%
    11:00 +28°C° 0 mm 4 mps 761 mmHg 66%
    12:00 +29°C° 0 mm 4 mps 760 mmHg 62%
    13:00 +29°C° 0 mm 4 mps 760 mmHg 63%
    14:00 +28°C° 0 mm 4 mps 759 mmHg 64%
    15:00 +28°C° 0 mm 4 mps 759 mmHg 66%
    16:00 +26°C° 0 mm 3 mps 759 mmHg 73%
    17:00 +25°C° 0 mm 2 mps 759 mmHg 80%
    18:00 +23°C° 0 mm 2 mps 760 mmHg 87%
    19:00 +23°C° 0 mm 2 mps 760 mmHg 89%
    20:00 +23°C° 0 mm 1 mps 761 mmHg 91%
    21:00 +22°C° 0 mm 1 mps 761 mmHg 93%
    22:00 +22°C° 0.1 mm 1 mps 761 mmHg 95%
    23:00 +22°C° 0.1 mm 1 mps 761 mmHg 96%

    22 February, Friday

    Time Temperature Precipitation Wind Pressure Humidity
    00:00 +21°C° 0.1 mm 1 mps 761 mmHg 98%
    01:00 +21°C° 0 mm 1 mps 761 mmHg 98%
    02:00 +21°C° 0 mm 1 mps 761 mmHg 98%
    03:00 +21°C° 0 mm 1 mps 761 mmHg 98%
    04:00 +21°C° 0 mm 1 mps 761 mmHg 98%
    05:00 +20°C° 0 mm 1 mps 761 mmHg 98%
    06:00 +20°C° 0 mm 1 mps 761 mmHg 98%
    07:00 +22°C° 0 mm 1 mps 762 mmHg 90%
    08:00 +24°C° 0 mm 1 mps 762 mmHg 82%
    09:00 +26°C° 0 mm 2 mps 763 mmHg 74%
    10:00 +27°C° 0 mm 2 mps 763 mmHg 68%
    11:00 +29°C° 0 mm 3 mps 762 mmHg 63%
    12:00 +30°C° 0 mm 3 mps 762 mmHg 57%
    13:00 +30°C° 0 mm 3 mps 762 mmHg 57%
    14:00 +30°C° 0 mm 3 mps 761 mmHg 57%
    15:00 +30°C° 0 mm 3 mps 761 mmHg 57%
    16:00 +28°C° 0 mm 3 mps 761 mmHg 65%
    17:00 +26°C° 0 mm 2 mps 761 mmHg 72%
    18:00 +24°C° 0 mm 2 mps 761 mmHg 80%
    19:00 +23°C° 0 mm 1 mps 761 mmHg 84%
    20:00 +22°C° 0 mm 1 mps 762 mmHg 87%
    21:00 +21°C° 0 mm 1 mps 762 mmHg 91%
    22:00 +21°C° 0 mm 1 mps 762 mmHg 91%
    23:00 +21°C° 0 mm 1 mps 762 mmHg 91%

    23 February, Saturday

    Time Temperature Precipitation Wind Pressure Humidity
    00:00 +20°C° 0 mm 1 mps 762 mmHg 91%
    01:00 +20°C° 0 mm 1 mps 761 mmHg 92%
    02:00 +20°C° 0 mm 1 mps 761 mmHg 94%
    03:00 +19°C° 0 mm 1 mps 761 mmHg 95%
    04:00 +19°C° 0 mm 1 mps 761 mmHg 95%
    05:00 +19°C° 0 mm 1 mps 761 mmHg 95%
    06:00 +19°C° 0 mm 1 mps 761 mmHg 96%
    07:00 +21°C° 0 mm 1 mps 762 mmHg 86%
    08:00 +23°C° 0 mm 2 mps 762 mmHg 77%
    09:00 +25°C° 0 mm 2 mps 763 mmHg 68%
    10:00 +27°C° 0 mm 2 mps 762 mmHg 63%
    11:00 +28°C° 0 mm 3 mps 762 mmHg 59%
    12:00 +30°C° 0 mm 4 mps 761 mmHg 54%
    13:00 +29°C° 0 mm 4 mps 761 mmHg 55%
    14:00 +29°C° 0 mm 4 mps 760 mmHg 56%
    15:00 +29°C° 0 mm 4 mps 759 mmHg 57%
    16:00 +27°C° 0 mm 3 mps 760 mmHg 64%
    17:00 +25°C° 0 mm 3 mps 760 mmHg 72%
    18:00 +23°C° 0 mm 2 mps 760 mmHg 79%
    19:00 +21°C° 0 mm 2 mps 760 mmHg 83%
    20:00 +21°C° 0 mm 2 mps 760 mmHg 87%
    21:00 +21°C° 0 mm 1 mps 760 mmHg 92%
    22:00 +20°C° 0 mm 2 mps 760 mmHg 90%
    23:00 +21°C° 0 mm 2 mps 760 mmHg 89%

    24 February, Sunday

    Time Temperature Precipitation Wind Pressure Humidity
    00:00 +21°C° 0 mm 2 mps 759 mmHg 87%
    01:00 +21°C° 0 mm 2 mps 759 mmHg 89%
    02:00 +21°C° 0 mm 2 mps 759 mmHg 91%
    03:00 +21°C° 0 mm 2 mps 758 mmHg 93%
    04:00 +21°C° 0 mm 2 mps 758 mmHg 94%
    05:00 +20°C° 0 mm 2 mps 758 mmHg 96%
    06:00 +20°C° 0 mm 2 mps 758 mmHg 97%
    07:00 +22°C° 0 mm 3 mps 759 mmHg 88%
    08:00 +25°C° 0 mm 4 mps 759 mmHg 78%
    09:00 +27°C° 0 mm 4 mps 759 mmHg 68%
    10:00 +27°C° 0.7 mm 4 mps 759 mmHg 69%
    11:00 +27°C° 0.7 mm 4 mps 759 mmHg 70%
    12:00 +27°C° 0.7 mm 4 mps 758 mmHg 70%
    13:00 +27°C° 1.3 mm 3 mps 758 mmHg 73%
    14:00 +27°C° 1.3 mm 3 mps 758 mmHg 76%
    15:00 +26°C° 1.3 mm 3 mps 758 mmHg 79%
    16:00 +25°C° 0.1 mm 2 mps 758 mmHg 80%
    17:00 +24°C° 0.1 mm 2 mps 758 mmHg 81%
    18:00 +23°C° 0.1 mm 1 mps 759 mmHg 82%
    19:00 +20°C° 0 mm 2 mps 759 mmHg 77%
    20:00 +19°C° 0 mm 2 mps 760 mmHg 71%
    21:00 +18°C° 0 mm 2 mps 760 mmHg 66%
    22:00 +17°C° 0 mm 2 mps 760 mmHg 67%
    23:00 +16°C° 0 mm 2 mps 760 mmHg 67%
    Show more